Location: Unspecified
(49.2170°N, 0.0000°E)
Time: 00:47:31
(UTC+00:00)

Vanguard 3 - Pass Details

Date: 01 July 2019
Orbit: 507 x 3264 km, 33.4° (Epoch: 22 July)

Event Time Altitude Azimuth Distance (km) Brightness Sun altitude
Rises 07:21:00 0° 214° (SSW) 7,191 11.7 29.7°
Reaches altitude 10° 07:26:55 10° 204° (SSW) 6,192 11.5 30.7°
Maximum altitude 07:41:48 29° 155° (SSE) 4,350 11.5 33.1°
Drops below altitude 10° 07:53:31 10° 103° (ESE) 4,876 12.5 35.0°
Sets 07:57:25 0° 93° (E) 5,504 12.4 35.7°
